| time (UTC) | temp F | wind direction | speed MPH | gust MPH | rain 1hr in | rain 24hr in | rain mn in | humidity % | barometer mb |
| 20260502170443 | 70 | 214 | 0.0 | 0.0 | 0.00 | 0.00 | 0.00 | 36 | 1023.5 |
| 20260502163937 | 70 | 208 | 0.0 | 0.0 | 0.00 | 0.00 | 0.00 | 40 | 1023.7 |
| 20260502163440 | 70 | 204 | 0.0 | 0.0 | 0.00 | 0.00 | 0.00 | 38 | 1023.7 |
| 20260502162937 | 70 | 248 | 0.0 | 0.0 | 0.00 | 0.00 | 0.00 | 41 | 1023.7 |
| 20260502162437 | 70 | 216 | 0.0 | 0.0 | 0.00 | 0.00 | 0.00 | 42 | 1023.8 |
| 20260502161940 | 70 | 214 | 0.0 | 0.0 | 0.00 | 0.00 | 0.00 | 39 | 1023.9 |
| 20260502161446 | 70 | 189 | 0.0 | 0.0 | 0.00 | 0.00 | 0.00 | 39 | 1023.9 |
| 20260502160937 | 70 | 269 | 0.0 | 0.0 | 0.00 | 0.00 | 0.00 | 43 | 1024.0 |
| 20260502160437 | 70 | 201 | 0.0 | 0.0 | 0.00 | 0.00 | 0.00 | 42 | 1024.0 |
| 20260502151440 | 69 | 216 | 0.0 | 0.0 | 0.00 | 0.00 | 0.00 | 45 | 1024.5 |
| 20260502150943 | 69 | 208 | 0.0 | 0.0 | 0.00 | 0.00 | 0.00 | 46 | 1024.6 |
| 20260502150443 | 70 | 222 | 0.0 | 0.0 | 0.00 | 0.00 | 0.00 | 45 | 1024.6 |
| 20260502130441 | 70 | 195 | 0.0 | 0.0 | 0.00 | 0.00 | 0.00 | 43 | 1025.9 |
| 20260502123440 | 69 | 208 | 0.0 | 0.0 | 0.00 | 0.00 | 0.00 | 44 | 1026.0 |
| 20260502122940 | 69 | 252 | 0.0 | 0.0 | 0.00 | 0.00 | 0.00 | 43 | 1026.1 |
| 20260502122437 | 69 | 197 | 0.0 | 0.0 | 0.00 | 0.00 | 0.00 | 41 | 1026.1 |
| 20260502121941 | 69 | 217 | 0.0 | 0.0 | 0.00 | 0.00 | 0.00 | 38 | 1026.2 |
| 20260502121440 | 69 | 226 | 0.0 | 0.0 | 0.00 | 0.00 | 0.00 | 46 | 1026.1 |
| 20260502120944 | 69 | 210 | 0.0 | 0.0 | 0.00 | 0.00 | 0.00 | 43 | 1026.2 |
| 20260502120437 | 69 | 226 | 0.0 | 0.0 | 0.00 | 0.00 | 0.00 | 44 | 1026.3 |
| 20260502115441 | 69 | 206 | 0.0 | 0.0 | 0.00 | 0.00 | 0.00 | 42 | 1026.3 |
| 20260502114938 | 68 | 225 | 0.0 | 0.0 | 0.00 | 0.00 | 0.00 | 42 | 1026.4 |
| 20260502114444 | 68 | 359 | 0.0 | 0.0 | 0.00 | 0.00 | 0.00 | 40 | 1026.5 |
| 20260502113941 | 69 | 220 | 0.0 | 0.0 | 0.00 | 0.00 | 0.00 | 36 | 1026.5 |
| 20260502113441 | 69 | 218 | 0.0 | 0.0 | 0.00 | 0.00 | 0.00 | 39 | 1026.5 |
| 20260502112938 | 69 | 213 | 0.0 | 0.0 | 0.00 | 0.00 | 0.00 | 39 | 1026.6 |
| 20260502112438 | 69 | 359 | 0.0 | 0.0 | 0.00 | 0.00 | 0.00 | 41 | 1026.7 |
| 20260502111944 | 69 | 359 | 0.0 | 0.0 | 0.00 | 0.00 | 0.00 | 42 | 1026.8 |
| 20260502111441 | 69 | 190 | 0.0 | 0.0 | 0.00 | 0.00 | 0.00 | 44 | 1026.8 |
| 20260502110938 | 69 | 240 | 0.0 | 0.0 | 0.00 | 0.00 | 0.00 | 42 | 1026.9 |
| 20260502110441 | 69 | 241 | 0.0 | 0.0 | 0.00 | 0.00 | 0.00 | 43 | 1026.9 |
| 20260502105938 | 69 | 359 | 0.0 | 0.0 | 0.00 | 0.00 | 0.00 | 39 | 1027.0 |
| 20260502105438 | 69 | 244 | 0.0 | 0.0 | 0.00 | 0.00 | 0.00 | 41 | 1027.1 |
| 20260502104941 | 69 | 359 | 0.0 | 0.0 | 0.00 | 0.00 | 0.00 | 42 | 1027.1 |
| 20260502104438 | 69 | 359 | 0.0 | 0.0 | 0.00 | 0.00 | 0.00 | 41 | 1027.1 |
| 20260502103944 | 69 | 359 | 0.0 | 0.0 | 0.00 | 0.00 | 0.00 | 38 | 1027.1 |
| 20260502103444 | 69 | 359 | 0.0 | 0.0 | 0.00 | 0.00 | 0.00 | 37 | 1027.2 |
| 20260502102938 | 69 | 212 | 0.0 | 0.0 | 0.00 | 0.00 | 0.00 | 36 | 1027.2 |
| 20260502102438 | 69 | 218 | 0.0 | 0.0 | 0.00 | 0.00 | 0.00 | 33 | 1027.2 |
| 20260502101438 | 69 | 359 | 0.0 | 0.0 | 0.00 | 0.00 | 0.00 | 33 | 1027.4 |
| 20260502100938 | 69 | 207 | 0.0 | 0.0 | 0.00 | 0.00 | 0.00 | 33 | 1027.4 |
| 20260502100441 | 69 | 187 | 0.0 | 0.0 | 0.00 | 0.00 | 0.00 | 34 | 1027.6 |
| 20260502091447 | 69 | 218 | 0.0 | 0.0 | 0.00 | 0.00 | 0.00 | 35 | 1028.1 |
| 20260502090938 | 69 | 239 | 0.0 | 0.0 | 0.00 | 0.00 | 0.00 | 34 | 1028.0 |
| 20260502090438 | 69 | 222 | 0.0 | 0.0 | 0.00 | 0.00 | 0.00 | 35 | 1028.1 |
| 20260502071441 | 68 | 135 | 0.0 | 0.0 | 0.00 | 0.00 | 0.00 | 43 | 1028.1 |
| 20260502070938 | 68 | 135 | 0.0 | 0.0 | 0.00 | 0.00 | 0.00 | 44 | 1028.1 |
| 20260502070444 | 68 | 63 | 0.0 | 0.0 | 0.00 | 0.00 | 0.00 | 44 | 1028.0 |
| 20260502065938 | 67 | 63 | 0.0 | 0.0 | 0.00 | 0.00 | 0.00 | 47 | 1028.0 |
| 20260502065438 | 67 | 63 | 0.0 | 0.0 | 0.00 | 0.00 | 0.00 | 47 | 1028.0 |
| 20260502064944 | 67 | 73 | 0.0 | 0.0 | 0.00 | 0.00 | 0.00 | 47 | 1028.0 |
| 20260502064438 | 67 | 37 | 0.0 | 0.0 | 0.00 | 0.00 | 0.00 | 48 | 1028.0 |
| 20260502063938 | 66 | 37 | 0.0 | 0.0 | 0.00 | 0.00 | 0.00 | 49 | 1028.0 |
| 20260502063441 | 65 | 42 | 0.0 | 0.0 | 0.00 | 0.00 | 0.00 | 49 | 1028.0 |
| 20260502062938 | 64 | 37 | 0.0 | 0.0 | 0.00 | 0.00 | 0.00 | 50 | 1028.0 |
| 20260502062441 | 64 | 51 | 0.0 | 0.0 | 0.00 | 0.00 | 0.00 | 50 | 1028.0 |
| 20260502061944 | 64 | 8 | 0.0 | 0.0 | 0.00 | 0.00 | 0.00 | 50 | 1028.0 |
| 20260502060941 | 63 | 25 | 0.0 | 0.0 | 0.00 | 0.00 | 0.00 | 50 | 1028.0 |
| 20260502060438 | 63 | 359 | 0.0 | 0.0 | 0.00 | 0.00 | 0.00 | 49 | 1028.0 |
| 20260502055941 | 62 | 359 | 0.0 | 0.0 | 0.00 | 0.00 | 0.00 | 50 | 1028.0 |
| 20260502055441 | 62 | 359 | 0.0 | 0.0 | 0.00 | 0.00 | 0.00 | 51 | 1028.0 |
| 20260502054938 | 61 | 359 | 0.0 | 0.0 | 0.00 | 0.00 | 0.00 | 52 | 1028.1 |
| 20260502054438 | 61 | 359 | 0.0 | 0.0 | 0.00 | 0.00 | 0.00 | 51 | 1028.0 |
| 20260502053941 | 61 | 359 | 0.0 | 0.0 | 0.00 | 0.00 | 0.00 | 52 | 1028.0 |
| 20260502053438 | 61 | 359 | 0.0 | 0.0 | 0.00 | 0.00 | 0.00 | 52 | 1028.0 |
| 20260502052944 | 61 | 359 | 0.0 | 0.0 | 0.00 | 0.00 | 0.00 | 52 | 1028.0 |
| 20260502052439 | 61 | 359 | 0.0 | 0.0 | 0.00 | 0.00 | 0.00 | 51 | 1028.0 |
| 20260502051938 | 61 | 359 | 0.0 | 0.0 | 0.00 | 0.00 | 0.00 | 50 | 1028.0 |
| 20260502051441 | 61 | 359 | 0.0 | 0.0 | 0.00 | 0.00 | 0.00 | 50 | 1027.9 |
| 20260502050944 | 61 | 359 | 0.0 | 0.0 | 0.00 | 0.00 | 0.00 | 50 | 1027.9 |
| 20260502050438 | 61 | 359 | 0.0 | 0.0 | 0.00 | 0.00 | 0.00 | 50 | 1027.9 |
| 20260502045938 | 61 | 359 | 0.0 | 0.0 | 0.00 | 0.00 | 0.00 | 50 | 1027.9 |
| 20260502045438 | 61 | 359 | 0.0 | 0.0 | 0.00 | 0.00 | 0.00 | 50 | 1027.9 |
| 20260502044947 | 61 | 359 | 0.0 | 0.0 | 0.00 | 0.00 | 0.00 | 50 | 1027.9 |
| 20260502044444 | 61 | 359 | 0.0 | 0.0 | 0.00 | 0.00 | 0.00 | 50 | 1027.9 |
| 20260502043944 | 61 | 359 | 0.0 | 0.0 | 0.00 | 0.00 | 0.00 | 49 | 1027.8 |
| 20260502043441 | 60 | 359 | 0.0 | 0.0 | 0.00 | 0.00 | 0.00 | 49 | 1027.8 |
| 20260502042944 | 60 | 359 | 0.0 | 0.0 | 0.00 | 0.00 | 0.00 | 50 | 1027.9 |
| 20260502042444 | 60 | 359 | 0.0 | 0.0 | 0.00 | 0.00 | 0.00 | 49 | 1027.8 |
| 20260502041938 | 61 | 359 | 0.0 | 0.0 | 0.00 | 0.00 | 0.00 | 50 | 1027.8 |
| 20260502041438 | 61 | 359 | 0.0 | 0.0 | 0.00 | 0.00 | 0.00 | 49 | 1027.8 |
| 20260502040938 | 61 | 359 | 0.0 | 0.0 | 0.00 | 0.00 | 0.00 | 49 | 1027.7 |
| 20260502040441 | 61 | 359 | 0.0 | 0.0 | 0.00 | 0.00 | 0.00 | 49 | 1027.7 |
| 20260502035941 | 61 | 359 | 0.0 | 0.0 | 0.00 | 0.00 | 0.00 | 50 | 1027.8 |
| 20260502035438 | 61 | 359 | 0.0 | 0.0 | 0.00 | 0.00 | 0.00 | 50 | 1027.8 |
| 20260502034941 | 60 | 359 | 0.0 | 0.0 | 0.00 | 0.00 | 0.00 | 50 | 1027.7 |
| 20260502034441 | 60 | 359 | 0.0 | 0.0 | 0.00 | 0.00 | 0.00 | 50 | 1027.7 |
| 20260502033938 | 60 | 359 | 0.0 | 0.0 | 0.00 | 0.00 | 0.00 | 50 | 1027.6 |
| 20260502033444 | 60 | 359 | 0.0 | 0.0 | 0.00 | 0.00 | 0.00 | 50 | 1027.6 |
| 20260502032938 | 60 | 359 | 0.0 | 0.0 | 0.00 | 0.00 | 0.00 | 50 | 1027.6 |
| 20260502032438 | 60 | 359 | 0.0 | 0.0 | 0.00 | 0.00 | 0.00 | 50 | 1027.6 |
| 20260502031944 | 60 | 359 | 0.0 | 0.0 | 0.00 | 0.00 | 0.00 | 50 | 1027.7 |
| 20260502031441 | 60 | 359 | 0.0 | 0.0 | 0.00 | 0.00 | 0.00 | 50 | 1027.7 |
| 20260502030941 | 60 | 359 | 0.0 | 0.0 | 0.00 | 0.00 | 0.00 | 50 | 1027.7 |
| 20260502030438 | 60 | 359 | 0.0 | 0.0 | 0.00 | 0.00 | 0.00 | 50 | 1027.8 |
| 20260502025941 | 60 | 359 | 0.0 | 0.0 | 0.00 | 0.00 | 0.00 | 50 | 1027.8 |
| 20260502025438 | 61 | 359 | 0.0 | 0.0 | 0.00 | 0.00 | 0.00 | 49 | 1027.8 |
| 20260502024941 | 61 | 359 | 0.0 | 0.0 | 0.00 | 0.00 | 0.00 | 49 | 1027.7 |
| 20260502024438 | 61 | 359 | 0.0 | 0.0 | 0.00 | 0.00 | 0.00 | 50 | 1027.8 |
| 20260502023938 | 61 | 359 | 0.0 | 0.0 | 0.00 | 0.00 | 0.00 | 50 | 1027.7 |
| 20260502023438 | 61 | 359 | 0.0 | 0.0 | 0.00 | 0.00 | 0.00 | 50 | 1027.8 |
| 20260502022938 | 61 | 359 | 0.0 | 0.0 | 0.00 | 0.00 | 0.00 | 50 | 1027.8 |
| 20260502022438 | 61 | 359 | 0.0 | 0.0 | 0.00 | 0.00 | 0.00 | 50 | 1027.8 |
| 20260502021941 | 61 | 359 | 0.0 | 0.0 | 0.00 | 0.00 | 0.00 | 50 | 1027.8 |
| 20260502021438 | 61 | 359 | 0.0 | 0.0 | 0.00 | 0.00 | 0.00 | 49 | 1027.8 |
| 20260502020941 | 61 | 359 | 0.0 | 0.0 | 0.00 | 0.00 | 0.00 | 51 | 1027.8 |
| 20260502020437 | 61 | 359 | 0.0 | 0.0 | 0.00 | 0.00 | 0.00 | 51 | 1027.8 |
| 20260502015937 | 61 | 359 | 0.0 | 0.0 | 0.00 | 0.00 | 0.00 | 51 | 1027.8 |
| 20260502015437 | 61 | 359 | 0.0 | 0.0 | 0.00 | 0.00 | 0.00 | 52 | 1027.8 |
| 20260502014940 | 61 | 359 | 0.0 | 0.0 | 0.00 | 0.00 | 0.00 | 52 | 1027.8 |
| 20260502014440 | 61 | 359 | 0.0 | 0.0 | 0.00 | 0.00 | 0.00 | 50 | 1027.8 |
| 20260502013940 | 61 | 359 | 0.0 | 0.0 | 0.00 | 0.00 | 0.00 | 51 | 1027.8 |
| 20260502013437 | 61 | 359 | 0.0 | 0.0 | 0.00 | 0.00 | 0.00 | 52 | 1027.7 |
| 20260502012937 | 61 | 359 | 0.0 | 0.0 | 0.00 | 0.00 | 0.00 | 52 | 1027.8 |
| 20260502012440 | 62 | 359 | 0.0 | 0.0 | 0.00 | 0.00 | 0.00 | 53 | 1027.8 |
| 20260502011940 | 62 | 359 | 0.0 | 0.0 | 0.00 | 0.00 | 0.00 | 53 | 1027.8 |
| 20260502011437 | 62 | 359 | 0.0 | 0.0 | 0.00 | 0.00 | 0.00 | 53 | 1027.8 |
| 20260502010943 | 62 | 359 | 0.0 | 0.0 | 0.00 | 0.00 | 0.00 | 52 | 1027.8 |
| 20260502010437 | 62 | 359 | 0.0 | 0.0 | 0.00 | 0.00 | 0.00 | 51 | 1027.8 |
| 20260502005937 | 62 | 359 | 0.0 | 0.0 | 0.00 | 0.00 | 0.00 | 50 | 1027.8 |
| 20260502005443 | 62 | 359 | 0.0 | 0.0 | 0.00 | 0.00 | 0.00 | 50 | 1027.8 |
| 20260502004940 | 62 | 359 | 0.0 | 0.0 | 0.00 | 0.00 | 0.00 | 50 | 1027.8 |
| 20260502004440 | 62 | 359 | 0.0 | 0.0 | 0.00 | 0.00 | 0.00 | 50 | 1027.8 |
| 20260502003937 | 62 | 359 | 0.0 | 0.0 | 0.00 | 0.00 | 0.00 | 50 | 1027.8 |
| 20260502003440 | 62 | 359 | 0.0 | 0.0 | 0.00 | 0.00 | 0.00 | 50 | 1027.7 |
| 20260502002940 | 62 | 359 | 0.0 | 0.0 | 0.00 | 0.00 | 0.00 | 50 | 1027.8 |
| 20260502002437 | 62 | 359 | 0.0 | 0.0 | 0.00 | 0.00 | 0.00 | 49 | 1027.8 |
| 20260502001940 | 62 | 359 | 0.0 | 0.0 | 0.00 | 0.00 | 0.00 | 48 | 1027.8 |
| 20260502001440 | 62 | 359 | 0.0 | 0.0 | 0.00 | 0.00 | 0.00 | 47 | 1027.9 |
| 20260502000943 | 62 | 359 | 0.0 | 0.0 | 0.00 | 0.00 | 0.00 | 47 | 1027.8 |
| 20260502000447 | 63 | 359 | 0.0 | 0.0 | 0.00 | 0.00 | 0.00 | 47 | 1027.9 |
| 20260501235943 | 63 | 359 | 0.0 | 0.0 | 0.00 | 0.00 | 0.00 | 46 | 1027.8 |
| 20260501235446 | 63 | 359 | 0.0 | 0.0 | 0.00 | 0.00 | 0.00 | 47 | 1027.8 |
| 20260501234937 | 63 | 359 | 0.0 | 0.0 | 0.00 | 0.00 | 0.00 | 48 | 1027.8 |
| 20260501234437 | 63 | 359 | 0.0 | 0.0 | 0.00 | 0.00 | 0.00 | 49 | 1027.8 |
| 20260501233940 | 63 | 359 | 0.0 | 0.0 | 0.00 | 0.00 | 0.00 | 48 | 1027.8 |
| 20260501233437 | 63 | 359 | 0.0 | 0.0 | 0.00 | 0.00 | 0.00 | 49 | 1027.8 |
| 20260501232937 | 63 | 359 | 0.0 | 0.0 | 0.00 | 0.00 | 0.00 | 49 | 1027.8 |
| 20260501232443 | 63 | 359 | 0.0 | 0.0 | 0.00 | 0.00 | 0.00 | 48 | 1027.8 |
| 20260501231937 | 63 | 359 | 0.0 | 0.0 | 0.00 | 0.00 | 0.00 | 47 | 1027.7 |
| 20260501231437 | 62 | 359 | 0.0 | 0.0 | 0.00 | 0.00 | 0.00 | 48 | 1027.8 |
| 20260501230940 | 62 | 359 | 0.0 | 0.0 | 0.00 | 0.00 | 0.00 | 48 | 1027.7 |
| 20260501230437 | 62 | 359 | 0.0 | 0.0 | 0.00 | 0.00 | 0.00 | 49 | 1027.7 |
| 20260501225937 | 62 | 359 | 0.0 | 0.0 | 0.00 | 0.00 | 0.00 | 49 | 1027.6 |
| 20260501225437 | 63 | 359 | 0.0 | 0.0 | 0.00 | 0.00 | 0.00 | 48 | 1027.6 |
| 20260501224937 | 63 | 359 | 0.0 | 0.0 | 0.00 | 0.00 | 0.00 | 46 | 1027.4 |
| 20260501224437 | 64 | 359 | 0.0 | 0.0 | 0.00 | 0.00 | 0.00 | 46 | 1027.3 |
| 20260501223940 | 64 | 359 | 0.0 | 0.0 | 0.00 | 0.00 | 0.00 | 45 | 1027.3 |
| 20260501223440 | 64 | 359 | 0.0 | 0.0 | 0.00 | 0.00 | 0.00 | 45 | 1027.3 |
| 20260501222940 | 64 | 359 | 0.0 | 0.0 | 0.00 | 0.00 | 0.00 | 44 | 1027.2 |
| 20260501222443 | 64 | 359 | 0.0 | 0.0 | 0.00 | 0.00 | 0.00 | 44 | 1027.2 |
| 20260501221937 | 64 | 359 | 0.0 | 0.0 | 0.00 | 0.00 | 0.00 | 44 | 1027.2 |
| 20260501221443 | 64 | 359 | 0.0 | 0.0 | 0.00 | 0.00 | 0.00 | 45 | 1027.2 |
| 20260501220937 | 64 | 359 | 0.0 | 0.0 | 0.00 | 0.00 | 0.00 | 46 | 1027.1 |
| 20260501220437 | 64 | 359 | 0.0 | 0.0 | 0.00 | 0.00 | 0.00 | 45 | 1027.1 |
| 20260501215940 | 64 | 359 | 0.0 | 0.0 | 0.00 | 0.00 | 0.00 | 45 | 1027.1 |
| 20260501215440 | 64 | 359 | 0.0 | 0.0 | 0.00 | 0.00 | 0.00 | 45 | 1027.1 |
| 20260501214937 | 65 | 359 | 0.0 | 0.0 | 0.00 | 0.00 | 0.00 | 44 | 1027.0 |
| 20260501214437 | 65 | 359 | 0.0 | 0.0 | 0.00 | 0.00 | 0.00 | 43 | 1027.0 |
| 20260501213937 | 65 | 359 | 0.0 | 0.0 | 0.00 | 0.00 | 0.00 | 44 | 1027.1 |
| 20260501213440 | 65 | 359 | 0.0 | 0.0 | 0.00 | 0.00 | 0.00 | 44 | 1027.1 |
| 20260501212940 | 65 | 359 | 0.0 | 0.0 | 0.00 | 0.00 | 0.00 | 44 | 1027.1 |
| 20260501212437 | 65 | 359 | 0.0 | 0.0 | 0.00 | 0.00 | 0.00 | 43 | 1027.1 |
| 20260501211943 | 66 | 359 | 0.0 | 0.0 | 0.00 | 0.00 | 0.00 | 43 | 1027.1 |
| 20260501211437 | 66 | 359 | 0.0 | 0.0 | 0.00 | 0.00 | 0.00 | 42 | 1027.0 |
| 20260501210940 | 66 | 359 | 0.0 | 0.0 | 0.00 | 0.00 | 0.00 | 42 | 1027.0 |
| 20260501210443 | 67 | 359 | 0.0 | 0.0 | 0.00 | 0.00 | 0.00 | 40 | 1027.0 |
| 20260501205937 | 67 | 359 | 0.0 | 0.0 | 0.00 | 0.00 | 0.00 | 39 | 1026.9 |
| 20260501205440 | 67 | 359 | 0.0 | 0.0 | 0.00 | 0.00 | 0.00 | 40 | 1026.9 |
| 20260501204940 | 67 | 359 | 0.0 | 0.0 | 0.00 | 0.00 | 0.00 | 40 | 1026.9 |
| 20260501204440 | 67 | 359 | 0.0 | 0.0 | 0.00 | 0.00 | 0.00 | 39 | 1026.9 |
| 20260501203946 | 67 | 359 | 0.0 | 0.0 | 0.00 | 0.00 | 0.00 | 38 | 1026.9 |
| 20260501203437 | 68 | 359 | 0.0 | 0.0 | 0.00 | 0.00 | 0.00 | 38 | 1026.8 |
| 20260501202940 | 67 | 359 | 0.0 | 0.0 | 0.00 | 0.00 | 0.00 | 39 | 1026.8 |
| 20260501202437 | 67 | 359 | 0.0 | 0.0 | 0.00 | 0.00 | 0.00 | 40 | 1026.8 |
| 20260501201937 | 67 | 359 | 0.0 | 0.0 | 0.00 | 0.00 | 0.00 | 40 | 1026.8 |
| 20260501201437 | 67 | 359 | 0.0 | 0.0 | 0.00 | 0.00 | 0.00 | 40 | 1026.8 |
| 20260501200940 | 67 | 359 | 0.0 | 0.0 | 0.00 | 0.00 | 0.00 | 40 | 1026.7 |
| 20260501200437 | 68 | 359 | 0.0 | 0.0 | 0.00 | 0.00 | 0.00 | 40 | 1026.7 |
| 20260501195937 | 68 | 359 | 0.0 | 0.0 | 0.00 | 0.00 | 0.00 | 39 | 1026.6 |
| 20260501195437 | 68 | 359 | 0.0 | 0.0 | 0.00 | 0.00 | 0.00 | 39 | 1026.6 |
| 20260501194943 | 68 | 359 | 0.0 | 0.0 | 0.00 | 0.00 | 0.00 | 39 | 1026.5 |
| 20260501194443 | 68 | 359 | 0.0 | 0.0 | 0.00 | 0.00 | 0.00 | 39 | 1026.4 |
| 20260501193940 | 68 | 359 | 0.0 | 0.0 | 0.00 | 0.00 | 0.00 | 39 | 1026.4 |
| 20260501193437 | 68 | 359 | 0.0 | 0.0 | 0.00 | 0.00 | 0.00 | 39 | 1026.4 |
| 20260501192937 | 68 | 359 | 0.0 | 0.0 | 0.00 | 0.00 | 0.00 | 39 | 1026.3 |
| 20260501192437 | 68 | 359 | 0.0 | 0.0 | 0.00 | 0.00 | 0.00 | 40 | 1026.3 |
| 20260501191937 | 68 | 359 | 0.0 | 0.0 | 0.00 | 0.00 | 0.00 | 39 | 1026.2 |
| 20260501191440 | 68 | 359 | 0.0 | 0.0 | 0.00 | 0.00 | 0.00 | 39 | 1026.1 |
| 20260501190940 | 68 | 359 | 0.0 | 0.0 | 0.00 | 0.00 | 0.00 | 39 | 1026.1 |
| 20260501190437 | 68 | 359 | 0.0 | 0.0 | 0.00 | 0.00 | 0.00 | 40 | 1026.0 |
| 20260501185940 | 68 | 359 | 0.0 | 0.0 | 0.00 | 0.00 | 0.00 | 40 | 1025.9 |
| 20260501185440 | 68 | 359 | 0.0 | 0.0 | 0.00 | 0.00 | 0.00 | 40 | 1025.8 |
| 20260501184943 | 68 | 359 | 0.0 | 0.0 | 0.00 | 0.00 | 0.00 | 39 | 1025.7 |
| 20260501184437 | 68 | 359 | 0.0 | 0.0 | 0.00 | 0.00 | 0.00 | 40 | 1025.7 |
| 20260501183940 | 68 | 359 | 0.0 | 0.0 | 0.00 | 0.00 | 0.00 | 39 | 1025.5 |
| 20260501183443 | 68 | 359 | 0.0 | 0.0 | 0.00 | 0.00 | 0.00 | 39 | 1025.5 |
| 20260501182937 | 68 | 359 | 0.0 | 0.0 | 0.00 | 0.00 | 0.00 | 39 | 1025.5 |
| 20260501182437 | 68 | 359 | 0.0 | 0.0 | 0.00 | 0.00 | 0.00 | 39 | 1025.4 |
| 20260501181940 | 68 | 359 | 0.0 | 0.0 | 0.00 | 0.00 | 0.00 | 40 | 1025.4 |
| 20260501181437 | 69 | 359 | 0.0 | 0.0 | 0.00 | 0.00 | 0.00 | 39 | 1025.3 |
| 20260501180937 | 69 | 359 | 0.0 | 0.0 | 0.00 | 0.00 | 0.00 | 40 | 1025.2 |
| 20260501180443 | 69 | 359 | 0.0 | 0.0 | 0.00 | 0.00 | 0.00 | 39 | 1025.3 |
| 20260501175940 | 69 | 359 | 0.0 | 0.0 | 0.00 | 0.00 | 0.00 | 39 | 1025.4 |